Cape Dyer, Nunavut

6:08 PM ADT on October 19, 2017 (GMT -0300)
Cape Dyer

Weather History for CWFD - June, 2013

Change the Weather History Date:

Thursday, June 27, 2013

  Actual Average Record
Temperature  
Mean Temperature 35 °F -  
Max Temperature 46 °F 46 °F - ()
Min Temperature 24 °F 34 °F - ()
Degree Days  
Heating Degree Days 30    
Moisture  
Dew Point -    
Average Humidity    
Maximum Humidity    
Minimum Humidity    
Precipitation  
Precipitation 0.00 in 0.05 in - ()
Sea Level Pressure  
Sea Level Pressure 29.41 in    
Wind  
Wind Speed 15 mph ()    
Max Wind Speed 26 mph    
Max Gust Speed 31 mph    
Visibility 3.6 miles    
Events Rain , Snow    
T = Trace of Precipitation, MM = Missing Value Source: Averaged Metar Reports

Daily Weather History Graph

Daily Weather History Graph

Search for Another Location

Airport or City:

Trip Planner

Search our weather history database for the weather conditions in past years. The results will help you decide how hot, cold, wet, or windy it might be!

Date:

Astronomy

Jun. 27, 2013 Rise Set
Actual Time 1:41 AM ADT 12:37 AM ADT
Civil Twilight Sun does not rise Sun does not rise
Nautical Twilight Sun does not rise Sun does not rise
Astronomical Twilight Sun does not rise Sun does not rise
Moon 11:54 PM ADT (6/27) 9:56 AM ADT (6/27)
Length of Visible Light 24h 00m
Length of Day
22h 55m
Waning Gibbous, 77% of the Moon is Illuminated
Jun 27
Waning Gibbous
Jun 30
Last Quarter
Jul 8
New
Jul 16
First Quarter
Jul 22
Full

Hourly Weather History & Observations

Time (ADT) Temp. Windchill Dew Point Humidity Pressure Visibility Wind Dir Wind Speed Gust Speed Precip Events Conditions
12:00 AM 45 °F - - % 29.44 in 9 mi SSW 10.4 mph - - Rain Light Rain
12:00 AM 44.6 °F 38.8 °F - N/A% 29.44 in 9.0 mi SSW 11.5 mph - N/A Rain Light Rain
1:00 AM 44.6 °F 39.7 °F - N/A% 29.42 in 9.0 mi SW 9.2 mph - N/A Rain Light Rain
2:00 AM 46.4 °F 41.9 °F - N/A% 29.42 in 9.0 mi SSW 9.2 mph - N/A Rain Light Rain
2:28 AM 46.4 °F 45.2 °F - N/A% 29.31 in 9.0 mi SW 3.5 mph - N/A   Unknown
2:38 AM 46.4 °F 44.3 °F - N/A% 29.31 in 9.0 mi SW 4.6 mph - N/A Rain Light Rain
3:00 AM 41 °F - - % 29.43 in 9 mi NNE 8.1 mph - -  
3:00 AM 41.0 °F 35.8 °F - N/A% 29.43 in 9.0 mi NNE 8.1 mph - N/A Rain Light Rain
3:39 AM 33.8 °F 24.8 °F - N/A% 29.32 in 9.0 mi NNE 12.7 mph - N/A   Unknown
3:56 AM 37.4 °F 28.2 °F - N/A% 29.32 in 9.0 mi North 16.1 mph - N/A Rain Light Rain
4:00 AM 37.4 °F 28.9 °F - N/A% 29.44 in 9.0 mi North 13.8 mph - N/A Rain Light Rain
4:35 AM 33.8 °F 22.8 °F - N/A% 29.31 in 2.5 mi North 18.4 mph 25.3 mph N/A Rain Light Rain
4:36 AM 32.0 °F 21.2 °F - N/A% 29.31 in 1.1 mi NNE 16.1 mph 25.3 mph N/A Rain Light Rain
4:37 AM 32.0 °F 21.6 °F - N/A% 29.31 in 0.6 mi NNE 15.0 mph 25.3 mph N/A Rain Light Rain
4:38 AM 32.0 °F 21.2 °F - N/A% 29.31 in 0.4 mi NNE 16.1 mph 25.3 mph N/A Rain Light Rain
4:41 AM 32.0 °F 21.2 °F - N/A% 29.31 in 0.1 mi NNE 16.1 mph 25.3 mph N/A Rain Light Rain
4:54 AM 33.8 °F 23.5 °F - N/A% 29.31 in 0.5 mi NNE 16.1 mph - N/A Rain Light Rain
5:00 AM 33.8 °F 23.2 °F - N/A% 29.44 in 0.4 mi NNE 17.3 mph - N/A Rain Light Rain
5:03 AM 33.8 °F 24.3 °F - N/A% 29.31 in 0.1 mi NNE 13.8 mph 21.9 mph N/A Rain Light Rain
6:00 AM 33 °F - - % 29.43 in 0 mi North 19.6 mph - - Rain Light Rain
6:00 AM 33.8 °F 22.8 °F - N/A% 29.43 in 0.1 mi North 18.4 mph - N/A Rain Light Rain
7:00 AM 32.0 °F 19.5 °F - N/A% 29.43 in 0.1 mi North 21.9 mph - N/A Rain Light Rain
7:21 AM 33.8 °F 22.5 °F - N/A% 29.31 in 0.5 mi North 19.6 mph 26.5 mph N/A Rain Light Rain
7:29 AM 33.8 °F 21.9 °F - N/A% 29.31 in 0.4 mi North 21.9 mph - N/A Rain Light Rain
7:57 AM 33.8 °F 22.2 °F - N/A% 29.31 in 1.0 mi North 20.7 mph - N/A Rain Light Rain
7:59 AM 33.8 °F 21.6 °F - N/A% 29.32 in 1.5 mi North 23.0 mph - N/A Rain Light Rain
8:00 AM 33.8 °F 21.6 °F - N/A% 29.44 in 1.5 mi North 23.0 mph - N/A Rain Light Rain
8:17 AM 33.8 °F 21.6 °F - N/A% 29.32 in 1.4 mi North 23.0 mph - N/A Rain Light Rain
8:31 AM 33.8 °F 21.9 °F - N/A% 29.32 in 3.0 mi North 21.9 mph - N/A Rain Light Rain
8:33 AM 33.8 °F 21.3 °F - N/A% 29.32 in 2.0 mi North 24.2 mph - N/A Rain Light Rain
8:35 AM 33.8 °F 21.9 °F - N/A% 29.32 in 1.4 mi North 21.9 mph 28.8 mph N/A Rain Light Rain
8:48 AM 33.8 °F 21.6 °F - N/A% 29.32 in 0.8 mi North 23.0 mph - N/A Rain Light Rain
8:49 AM 33.8 °F 21.3 °F - N/A% 29.32 in 0.6 mi North 24.2 mph - N/A Rain Light Rain
8:51 AM 32.0 °F 19.2 °F - N/A% 29.32 in 0.4 mi North 23.0 mph - N/A Rain Light Rain
9:00 AM 33 °F - - % 29.45 in 0 mi North 23.0 mph - -  
9:00 AM 33.8 °F 21.6 °F - N/A% 29.45 in 0.4 mi North 23.0 mph - N/A Rain Light Rain
9:06 AM 33.8 °F 21.0 °F - N/A% 29.33 in 1.5 mi North 25.3 mph 31.1 mph N/A Rain Light Rain
9:17 AM 33.8 °F 21.0 °F - N/A% 29.33 in 8.0 mi North 25.3 mph 31.1 mph N/A Rain Light Rain
9:52 AM 33.8 °F 21.3 °F - N/A% 29.33 in 2.0 mi North 24.2 mph - N/A Rain Light Rain
9:53 AM 32.0 °F 18.4 °F - N/A% 29.33 in 1.1 mi North 26.5 mph - N/A Rain Light Rain
9:58 AM 33.8 °F 22.2 °F - N/A% 29.34 in 1.0 mi North 20.7 mph 27.6 mph N/A Rain Light Rain
9:59 AM 32.0 °F 19.8 °F - N/A% 29.34 in 0.6 mi North 20.7 mph 26.5 mph N/A Rain Light Rain
10:00 AM 32.0 °F 19.8 °F - N/A% 29.47 in 0.6 mi North 20.7 mph 26.5 mph N/A Rain Light Rain
10:02 AM 32.0 °F - - N/A% 29.34 in 0.4 mi North - - N/A Rain Light Rain
10:21 AM 33.8 °F 21.6 °F - N/A% 29.34 in 1.0 mi North 23.0 mph - N/A Rain Light Rain
10:25 AM 33.8 °F 21.3 °F - N/A% 29.34 in 3.5 mi North 24.2 mph - N/A Rain Light Rain
11:00 AM 33.8 °F 21.9 °F - N/A% 29.47 in 9.0 mi NNW 21.9 mph - N/A Rain Light Rain
11:47 AM 30.2 °F 18.5 °F - N/A% 29.35 in 1.4 mi North 17.3 mph - N/A Rain Light Freezing Rain
11:48 AM 30.2 °F 19.3 °F - N/A% 29.35 in 0.6 mi North 15.0 mph - N/A Rain Light Freezing Rain
11:49 AM 30.2 °F 19.8 °F - N/A% 29.35 in 0.4 mi North 13.8 mph 19.6 mph N/A Rain Light Freezing Rain
11:52 AM 30.2 °F 19.8 °F - N/A% 29.35 in 0.1 mi North 13.8 mph 19.6 mph N/A Rain Light Freezing Rain
11:54 AM 30.2 °F 19.8 °F - N/A% 29.35 in 0.1 mi North 13.8 mph - N/A Rain Light Freezing Rain
11:58 AM 28.4 °F 17.5 °F - N/A% 29.35 in 0.1 mi North 13.8 mph - N/A Rain Light Freezing Rain
12:00 PM 30 °F - - % 29.49 in 0 mi North 13.8 mph - -   Heavy Freezing Rain
12:00 PM 30.2 °F 19.3 °F - N/A% 29.49 in 0.1 mi North 15.0 mph - N/A Rain Light Freezing Rain
12:43 PM 30.2 °F 17.4 °F - N/A% 29.36 in 0.6 mi NNW 20.7 mph - N/A Rain Light Freezing Rain
12:45 PM 30.2 °F 17.4 °F - N/A% 29.36 in 1.5 mi NNW 20.7 mph - N/A Rain Light Freezing Rain
12:54 PM 30.2 °F 18.1 °F - N/A% 29.36 in 0.8 mi North 18.4 mph - N/A Rain Light Freezing Rain
12:55 PM 28.4 °F 16.2 °F - N/A% 29.36 in 0.4 mi North 17.3 mph - N/A Rain Light Freezing Rain
12:58 PM 30.2 °F 17.8 °F - N/A% 29.36 in 0.2 mi NNW 19.6 mph - N/A Rain Light Freezing Rain
1:00 PM 30.2 °F 18.1 °F - N/A% 29.49 in 0.2 mi NNW 18.4 mph - N/A Rain Light Freezing Rain
1:08 PM 30.2 °F 17.4 °F - N/A% 29.36 in 0.8 mi NNW 20.7 mph - N/A Rain Light Freezing Rain
1:10 PM 30.2 °F 17.1 °F - N/A% 29.36 in 1.5 mi NNW 21.9 mph - N/A Rain Light Freezing Rain
1:22 PM 30.2 °F 18.1 °F - N/A% 29.37 in 5.0 mi NW 18.4 mph - N/A Rain Light Freezing Rain
1:49 PM 30.2 °F 17.8 °F - N/A% 29.38 in 9.0 mi NW 19.6 mph 25.3 mph N/A Rain Light Freezing Rain
2:00 PM 30.2 °F 18.9 °F - N/A% 29.52 in 3.0 mi NNW 16.1 mph - N/A Rain Light Freezing Rain
2:06 PM 28.4 °F 18.5 °F - N/A% 29.39 in 0.4 mi NNW 11.5 mph 19.6 mph N/A Rain Light Freezing Rain
2:17 PM 30.2 °F 18.5 °F - N/A% 29.39 in 1.0 mi NW 17.3 mph - N/A Rain Light Freezing Rain
2:24 PM 30.2 °F 18.9 °F - N/A% 29.39 in 2.5 mi NW 16.1 mph - N/A Rain Light Freezing Rain
2:34 PM 30.2 °F 19.3 °F - N/A% 29.40 in 9.0 mi NW 15.0 mph - N/A Rain Light Freezing Rain
2:42 PM 28.4 °F 18.0 °F - N/A% 29.40 in 1.8 mi NNW 12.7 mph 18.4 mph N/A Rain Light Freezing Rain
2:44 PM 28.4 °F 18.0 °F - N/A% 29.40 in 1.1 mi NNW 12.7 mph 18.4 mph N/A Rain Light Freezing Rain
2:54 PM 30.2 °F 19.3 °F - N/A% 29.41 in 6.0 mi NW 15.0 mph - N/A Rain Light Freezing Rain
3:00 PM 28.4 °F 18.5 °F - N/A% 29.55 in 4.0 mi NNW 11.5 mph 17.3 mph N/A Rain Light Freezing Rain
4:00 PM 30.2 °F 18.9 °F - N/A% 29.58 in 9.0 mi NW 16.1 mph - N/A Rain Light Freezing Rain
5:00 PM 30.2 °F 17.1 °F - N/A% 29.61 in 9.0 mi WNW 21.9 mph - N/A Rain Light Freezing Rain
6:00 PM 30 °F - - % 29.62 in 9 mi NW 21.9 mph - - Rain Light Freezing Rain
6:00 PM 30.2 °F 16.8 °F - N/A% 29.62 in 9.0 mi NW 23.0 mph - N/A Rain Light Freezing Rain
7:00 PM 28.4 °F 16.2 °F - N/A% 29.65 in 9.0 mi WNW 17.3 mph 23.0 mph N/A Rain Light Freezing Rain
7:40 PM 28.4 °F 15.4 °F - N/A% 29.50 in 9.0 mi NW 19.6 mph 27.6 mph N/A   Unknown
8:00 PM 28.4 °F 16.6 °F - N/A% 29.67 in 9.0 mi NW 16.1 mph 24.2 mph N/A   Unknown
8:10 PM 28.4 °F 17.5 °F - N/A% 29.52 in 9.0 mi NW 13.8 mph - N/A Rain Light Freezing Rain
9:00 PM 28 °F - - % 29.69 in 6 mi NW 15.0 mph - -  
9:00 PM 28.4 °F 16.6 °F - N/A% 29.69 in 6.0 mi NW 16.1 mph - N/A Rain Light Freezing Rain
10:00 PM 26.6 °F 14.3 °F - N/A% 29.71 in 9.0 mi NW 16.1 mph - N/A Rain Light Freezing Rain
11:00 PM 24.8 °F 9.3 °F - N/A% 29.71 in 9.0 mi NW 24.2 mph - N/A Rain Light Freezing Rain
11:13 PM 24.8 °F 10.3 °F - N/A% 29.55 in 9.0 mi NNW 20.7 mph 26.5 mph N/A Snow Light Snow
11:39 PM 24.8 °F 9.3 °F - N/A% 29.56 in 9.0 mi NW 24.2 mph - N/A Rain Light Freezing Rain